Location: Valley Falls
(35.0169°N, 81.9753°W)
Time: 06:45:04
(UTC+00:00)

X-37B - Visible Passes

Search period start: 02 December 2022 00:00
Search period end: 12 December 2022 00:00
Orbit: 277 x 277 km, 45.0° (Epoch: 01 November)

Date Brightness Start Highest point End Pass type
(mag) Time Alt. Az. Time Alt. Az. Time Alt. Az.
04 Dec 1.6 23:28:24 10° SSW 23:30:16 21° SE 23:30:16 21° SE visible
05 Dec 0.2 23:28:36 10° SW 23:30:58 49° SE 23:31:11 47° ESE visible
06 Dec 0.0 23:29:12 10° WSW 23:31:37 67° NNW 23:32:02 52° NNE visible
07 Dec 1.1 23:30:06 10° W 23:32:21 32° NNW 23:32:48 29° N visible
08 Dec 1.9 23:31:14 10° WNW 23:33:09 19° NNW 23:33:32 19° N visible
09 Dec 2.4 23:32:37 10° NW 23:33:59 14° NNW 23:34:13 14° N visible
10 Dec 2.7 23:34:16 10° NNW 23:34:52 11° N 23:34:52 11° N visible
